GEFSSE_500_meanwind_132.txt.gz
Wind_Speed
14 13 13 13 13 13 12 12 12 12 12 12 11 11 11 10 10 10 10 10 10 10 10 10 10 10 10 10 10 10 10 10 11 11 11 11 11 11 11 10 10 10 10
15 14 14 14 14 14 14 14 13 13 13 13 13 13 13 13 13 13 12 12 12 12 12 12 12 12 12 12 12 12 12 12 12 12 12 12 13 13 12 12 12 12 12
16 15 15 15 15 16 16 16 15 15 15 15 14 14 14 15 15 14 14 14 14 14 14 14 14 14 14 14 14 14 14 14 14 14 14 14 14 14 14 14 14 14 14
17 17 17 17 17 17 17 17 17 17 17 16 16 16 16 16 16 16 16 16 16 16 17 17 17 17 17 17 16 16 16 16 16 16 16 16 16 16 16 16 16 16 16
19 19 18 18 18 18 18 18 18 18 18 18 18 17 17 17 17 17 17 18 18 18 18 18 18 18 18 18 19 18 18 18 18 18 18 18 18 18 18 18 18 18 18
21 20 20 19 19 19 19 19 18 18 18 19 18 18 18 19 19 19 19 19 20 20 20 20 20 20 20 20 20 20 20 20 19 19 20 20 20 20 20 20 20 20 19
22 22 21 21 20 20 19 19 19 19 19 19 20 20 20 20 20 20 21 21 21 21 21 21 21 21 21 21 21 21 22 22 22 22 22 21 21 22 22 21 21 21 21
24 23 22 22 21 21 21 21 20 20 20 21 21 21 21 21 21 21 21 22 22 22 22 22 22 23 23 23 23 23 23 23 23 24 24 24 24 24 23 23 23 23 23
25 24 24 23 22 22 22 22 22 22 22 22 22 22 21 22 22 23 23 23 23 24 24 24 24 25 24 25 25 25 26 26 26 26 26 26 26 26 25 25 25 25 25
26 26 25 24 24 24 23 24 24 24 23 23 23 23 23 23 24 24 24 25 25 25 25 26 26 26 26 27 27 28 28 28 29 29 29 28 28 28 28 28 28 27 27
27 26 26 26 25 25 25 25 25 25 25 25 25 25 25 25 25 25 26 26 27 27 27 28 28 28 29 29 30 30 31 31 31 31 31 31 31 31 31 30 30 30 30
28 27 27 27 27 27 27 26 26 26 26 26 26 26 26 26 26 27 27 28 28 29 29 30 30 31 31 31 32 33 33 33 34 33 33 33 33 33 33 33 33 33 32
29 29 28 28 28 28 28 27 27 27 27 27 27 27 27 27 28 28 29 29 30 31 31 32 32 32 32 33 33 33 33 34 34 34 35 34 34 34 34 35 35 35 35
30 30 29 29 29 29 29 29 28 28 28 28 28 28 28 29 29 29 30 31 31 32 32 33 33 33 33 33 33 33 34 34 35 35 36 36 36 36 37 37 38 38 37
30 30 30 30 30 30 30 30 30 29 29 29 29 29 29 30 31 31 31 31 32 32 33 33 33 34 34 35 35 35 35 35 36 37 38 38 38 38 38 38 39 39 39
31 31 31 30 30 31 31 31 31 31 30 30 30 30 31 31 31 31 31 32 32 32 33 34 34 35 36 36 37 37 37 37 37 38 38 39 40 40 40 39 39 39 40
31 31 31 31 31 31 31 32 32 32 31 31 30 31 31 31 32 32 32 33 33 33 34 35 36 36 37 38 38 39 39 39 40 40 40 40 40 41 41 40 40 39 39
32 32 32 31 32 32 32 32 32 31 31 31 32 32 31 32 32 33 33 34 34 35 35 36 37 37 38 38 38 39 40 40 40 40 40 40 41 40 41 41 42 41 41
31 31 32 31 31 31 31 31 31 32 32 33 33 32 33 33 33 34 34 35 35 35 35 36 36 37 37 38 38 39 40 40 41 41 41 41 41 41 41 42 42 42 42
32 31 31 32 31 31 31 32 32 32 33 33 33 33 34 34 35 35 35 35 35 35 36 36 36 37 37 38 39 39 40 41 42 42 41 41 41 42 42 42 42 42 43
31 31 30 31 31 32 32 33 33 33 33 34 34 35 35 35 35 35 35 35 36 36 35 35 36 36 37 37 38 39 40 40 40 40 40 41 41 42 42 43 43 43 43
31 32 31 31 32 33 33 34 34 34 35 35 35 35 35 35 35 35 35 35 35 35 35 35 36 36 37 37 37 38 38 38 38 39 39 39 40 40 41 42 43 43 43
31 32 32 32 32 33 34 34 34 35 35 35 35 35 35 35 35 35 35 35 35 36 36 37 37 37 37 37 37 37 37 37 37 37 37 37 37 37 39 40 42 42 42
31 31 32 33 33 34 34 35 35 35 35 35 35 35 35 35 35 36 36 36 37 37 37 37 37 37 37 37 37 37 37 37 36 36 37 38 39 39 37 37 39 40 41
31 32 33 33 34 35 35 35 35 36 36 36 36 36 36 36 36 37 37 37 37 37 37 37 37 37 37 37 36 36 36 36 36 36 36 38 39 40 40 39 39 40 41
31 33 34 35 36 36 35 35 36 37 37 38 38 38 38 37 38 38 38 37 37 37 36 36 36 37 37 36 36 36 36 37 37 37 37 37 38 39 40 40 40 40 40

GEFSSE_500_meanwind_138.txt.gz
Wind_Speed
12 11 11 10 10 9 9 9 9 9 9 10 10 10 10 9 9 9 9 10 10 10 10 10 11 11 11 11 11 11 11 11 12 12 12 12 12 12 12 12 12 12 12
14 13 12 11 11 11 11 10 10 11 11 11 11 11 11 11 11 12 12 12 11 12 12 12 12 13 13 13 13 13 13 13 13 14 14 13 13 14 14 14 14 14 14
16 14 13 13 13 13 13 12 12 12 12 12 12 13 13 13 13 13 13 13 13 13 14 14 14 14 15 15 15 15 16 16 15 15 16 16 15 15 15 16 16 16 16
17 16 15 15 14 14 14 14 14 14 14 14 14 14 14 14 14 15 15 15 15 15 16 16 16 16 17 17 17 17 18 18 18 18 18 17 17 17 17 17 17 17 17
18 18 17 16 16 15 15 15 15 15 15 15 15 16 16 16 16 16 16 16 16 17 17 17 18 18 18 18 18 18 18 19 19 19 19 19 19 19 19 19 18 18 18
19 19 18 18 17 17 16 16 16 16 16 16 17 17 17 17 17 17 17 18 18 19 19 19 19 20 20 20 20 19 20 19 19 19 19 20 20 20 21 21 20 20 20
21 20 19 19 18 18 17 17 17 17 17 18 18 18 18 19 19 19 19 20 20 20 20 21 21 21 21 21 21 20 20 20 20 21 21 21 21 22 22 22 22 22 22
22 21 21 20 20 19 19 19 19 18 18 19 19 19 20 20 21 21 21 21 21 21 22 22 22 22 22 22 22 22 23 23 23 23 24 24 24 24 24 24 24 24 24
23 23 22 22 21 21 20 20 20 20 20 20 20 20 21 21 21 22 22 22 22 22 22 23 23 24 24 24 24 24 25 25 26 26 26 26 27 27 27 27 27 27 27
24 24 23 22 22 22 21 21 20 20 21 21 21 21 21 21 22 22 22 23 23 23 24 24 24 25 26 26 27 27 27 27 28 28 28 28 28 28 29 29 29 29 29
26 25 24 24 23 23 22 22 21 22 22 22 22 22 22 22 23 23 24 24 25 25 25 26 26 27 27 28 28 28 29 29 29 29 29 29 30 30 30 30 31 30 30
27 26 26 25 24 24 23 23 23 23 23 23 23 23 24 24 25 25 25 26 26 26 27 27 27 28 28 28 29 29 30 30 30 30 30 31 31 31 31 31 31 32 32
28 27 27 26 25 25 24 24 24 24 24 25 25 25 26 26 26 26 26 27 27 28 28 29 29 29 29 29 30 31 31 31 31 31 32 32 32 32 32 32 33 33 34
29 28 28 27 26 26 26 26 26 26 26 27 27 27 27 28 28 28 28 28 28 29 29 29 29 30 30 31 31 32 32 33 33 32 33 33 33 33 33 34 34 35 36
30 29 28 28 28 28 28 27 27 28 28 28 29 29 29 29 29 29 29 29 29 29 30 30 31 31 31 32 33 33 34 34 34 34 34 34 33 34 35 35 36 36 37
30 30 29 29 29 29 29 29 29 29 29 30 30 30 30 30 30 30 30 30 30 30 31 31 32 32 32 33 33 34 33 34 34 34 34 35 35 35 35 36 36 37 38
31 31 30 30 30 30 30 30 30 30 30 31 31 30 31 31 31 31 31 31 31 31 32 32 32 32 32 32 32 33 33 33 33 34 34 34 35 35 36 37 37 38 39
31 31 31 31 31 30 30 30 30 30 30 31 32 32 32 32 32 32 32 32 32 32 32 32 31 31 31 32 32 32 33 34 33 33 34 34 35 36 37 37 37 38 39
30 31 31 31 30 30 30 30 30 31 31 32 32 32 32 31 32 32 31 32 32 32 32 32 31 31 32 32 33 33 33 33 33 34 35 36 36 36 37 37 37 38 38
30 31 31 31 30 30 30 30 31 31 32 32 32 32 33 32 32 32 32 31 32 32 33 32 32 33 33 33 33 33 33 34 34 35 36 37 37 37 38 38 38 38 38
30 30 30 30 30 30 30 31 31 32 32 33 33 33 33 33 33 33 32 32 32 32 33 33 34 34 34 34 34 35 35 35 36 36 37 37 37 38 38 39 39 39 39
30 30 30 30 30 31 31 31 31 32 32 33 34 34 33 33 33 33 33 34 34 34 34 34 35 35 35 35 36 36 36 35 36 37 37 37 37 37 37 37 38 39 39
30 30 30 31 31 32 32 32 32 32 32 33 32 33 34 34 34 34 34 35 35 35 36 36 36 37 37 37 37 37 36 36 36 36 37 37 37 37 36 37 37 39 39
29 30 31 31 32 32 32 33 33 34 34 34 34 35 35 36 36 36 36 37 36 36 37 37 38 38 38 38 38 38 37 37 37 37 37 37 37 37 37 37 38 39 39
30 30 32 32 32 33 33 33 34 35 35 36 36 36 36 37 37 37 38 38 38 39 39 39 39 39 39 39 38 38 38 37 37 37 36 36 37 37 37 38 39 39 39
31 31 31 32 33 34 34 34 35 35 36 36 37 37 36 36 37 38 38 39 39 40 40 40 40 40 40 39 38 38 37 37 37 37 36 36 36 37 37 38 39 39 39

GEFSSE_500_meanwind_144.txt.gz
Wind_Speed
14 13 12 10 10 9 9 8 7 7 6 6 5 5 6 6 6 6 7 7 8 8 8 9 9 9 10 10 11 11 11 12 12 12 13 13 13 13 13 13 13 14 14
16 14 13 12 11 11 10 10 9 9 8 8 7 7 7 7 8 8 9 9 9 10 10 11 11 11 11 12 12 13 13 13 14 14 14 15 15 15 15 15 15 15 15
17 16 15 14 13 12 12 11 10 9 9 9 9 9 9 9 9 10 10 11 11 11 12 13 13 13 14 14 14 15 15 15 15 15 15 16 16 16 16 16 16 17 17
19 18 16 15 14 14 13 12 12 11 10 10 10 10 10 10 11 11 12 12 13 13 14 14 15 15 16 16 16 17 16 16 17 17 17 17 17 17 18 18 18 18 18
20 19 18 17 16 15 14 14 13 13 12 12 12 12 12 12 12 13 13 13 14 14 15 15 16 16 17 17 18 18 18 19 19 19 19 19 19 19 19 19 19 19 19
21 20 19 18 18 17 16 15 15 14 14 14 14 13 14 14 14 14 14 14 15 15 15 16 16 17 17 18 19 19 20 20 20 21 21 20 20 20 21 21 21 21 21
22 21 20 19 19 18 17 17 16 16 16 16 16 15 15 16 15 15 16 16 16 16 16 17 17 18 18 19 19 20 20 21 21 22 22 22 22 22 22 23 22 22 22
24 22 21 20 20 19 18 18 17 17 17 17 17 17 17 17 17 17 17 17 18 18 18 18 19 19 20 20 21 21 22 22 22 23 23 24 24 24 24 24 25 24 25
25 24 22 22 21 20 20 19 18 18 18 17 18 18 18 18 18 19 19 19 19 19 19 20 20 21 21 22 23 23 24 24 24 24 25 25 25 25 26 26 26 26 26
27 25 24 23 22 22 21 20 20 19 19 18 18 19 19 20 20 20 20 20 21 21 22 22 22 23 23 24 24 24 25 25 26 26 27 27 27 27 27 27 27 27 27
28 27 26 24 23 23 22 21 21 20 20 20 20 20 21 21 21 21 22 22 23 23 24 24 24 24 25 25 26 26 27 27 28 28 28 28 28 28 28 28 28 28 28
29 28 27 26 25 24 23 23 22 22 22 22 22 21 22 22 22 23 23 24 25 25 25 25 26 26 26 27 27 28 28 29 29 29 29 29 29 29 30 30 30 30 30
30 29 28 27 26 25 24 24 23 23 23 24 24 23 23 23 23 24 25 25 26 26 26 26 27 27 27 28 28 28 29 29 29 28 28 29 29 30 30 30 31 31 31
31 30 29 28 27 26 26 25 25 25 25 25 25 25 24 24 25 25 25 26 26 27 27 27 28 28 28 28 28 28 29 28 28 28 28 28 29 30 30 30 31 31 31
31 31 29 29 28 27 26 26 26 26 26 27 26 26 26 25 26 26 26 27 27 28 28 28 28 29 29 29 29 28 28 28 28 28 29 29 29 29 29 30 30 31 31
30 29 29 28 28 27 27 27 28 27 27 28 28 28 27 27 27 28 28 28 28 28 29 29 30 29 29 29 29 29 29 29 29 30 30 29 29 30 30 30 31 31 32
31 29 28 28 28 28 29 29 29 29 28 28 28 28 29 29 29 29 29 29 29 29 30 30 30 30 30 30 30 31 31 31 30 31 31 31 31 31 31 32 33 33 34
32 31 30 30 30 30 30 30 30 30 29 29 29 30 30 30 30 30 30 30 31 31 30 30 30 30 31 31 32 32 32 33 33 32 32 32 32 33 33 34 35 34 35
32 31 31 31 32 31 31 31 31 31 30 30 30 30 30 30 30 30 30 30 31 31 30 31 31 31 32 32 33 33 33 33 33 33 34 34 34 34 35 35 35 35 35
32 31 31 32 32 32 32 32 32 32 32 31 31 31 31 31 31 30 30 31 31 31 32 32 32 32 33 33 34 34 34 34 34 35 35 35 35 35 36 36 36 36 36
31 31 31 32 32 32 33 33 33 33 33 32 32 32 32 32 32 31 31 32 32 32 32 33 33 33 34 34 35 35 35 35 35 35 36 36 36 36 37 37 37 37 37
32 32 32 32 32 32 33 33 33 33 33 33 33 33 34 33 33 33 33 33 33 33 34 34 34 35 35 36 36 36 36 36 36 36 36 37 37 37 37 37 37 37 37
32 33 33 33 33 33 34 34 35 35 34 35 34 34 35 35 34 35 35 35 35 36 35 35 36 36 36 37 38 38 39 39 38 38 38 38 38 38 37 37 37 37 37
32 33 33 33 34 34 34 35 36 36 35 35 36 36 36 36 36 36 36 36 35 36 37 37 38 38 39 40 40 40 40 40 40 40 40 39 38 38 38 38 37 37 37
31 32 33 33 34 34 34 35 36 36 36 37 36 36 36 36 36 36 37 37 37 38 39 39 40 40 41 42 42 42 42 42 42 42 40 40 39 39 39 39 39 39 39
31 32 33 34 35 35 35 35 36 36 37 37 37 36 36 36 36 37 39 39 39 40 41 41 42 42 43 43 43 43 44 43 43 43 41 40 40 40 40 40 40 40 40

GEFSSE_500_meanwind_150.txt.gz
Wind_Speed
15 14 13 12 11 11 10 9 8 8 7 6 6 5 4 4 3 3 3 3 3 3 3 4 4 5 5 6 7 7 8 8 8 9 10 11 11 12 12 12 12 12 13
18 16 15 14 13 12 11 10 10 9 8 8 7 6 6 5 5 4 4 4 4 5 5 6 6 7 8 8 9 9 10 10 11 11 12 12 13 13 14 14 14 14 14
20 19 17 16 15 14 13 12 11 10 10 9 8 8 7 6 6 6 6 7 7 7 7 7 8 9 9 10 11 11 12 12 13 13 13 14 14 15 15 15 15 16 16
21 20 19 18 17 15 14 13 12 11 11 10 10 9 9 8 8 8 8 9 9 9 9 9 10 10 10 11 12 12 13 13 14 15 15 16 16 17 17 17 17 17 17
23 22 21 20 19 17 16 15 14 13 12 12 11 11 10 10 10 10 10 10 10 10 10 11 11 11 12 13 13 14 14 15 15 16 16 17 18 19 19 19 19 19 19
24 23 22 21 20 19 17 16 15 14 14 13 13 13 12 12 12 12 11 11 11 12 12 12 13 13 14 14 15 15 15 16 17 17 17 18 19 20 20 20 21 21 21
26 24 24 23 22 20 19 18 17 16 16 16 15 14 14 14 14 14 13 13 13 13 14 14 14 15 15 16 16 16 16 17 17 18 18 19 19 20 20 21 22 22 22
27 26 25 24 23 22 21 20 19 18 17 17 17 16 16 16 15 15 15 15 15 15 15 15 16 16 16 17 17 17 18 18 18 19 20 20 21 20 21 21 22 22 23
28 27 26 25 24 23 22 21 20 20 19 18 18 18 17 17 17 17 18 17 17 17 17 17 17 18 18 19 19 19 19 20 21 21 21 22 22 22 22 22 23 23 24
29 28 28 27 26 25 23 22 22 21 21 20 19 19 19 19 19 19 19 19 19 19 19 20 20 20 20 20 20 21 21 21 22 22 23 23 23 23 24 24 24 25 25
30 30 29 28 27 25 24 24 23 22 22 22 21 20 20 20 20 20 20 21 21 21 22 22 22 22 21 21 22 22 23 23 23 23 23 23 24 24 25 25 25 26 26
32 31 30 29 28 27 25 25 24 24 23 23 22 22 22 22 22 22 22 22 22 23 23 23 23 23 23 23 23 23 23 23 23 23 24 24 25 25 25 25 26 26 27
32 32 31 30 29 28 27 26 25 25 24 24 24 24 23 23 23 23 23 23 23 24 24 24 24 24 24 24 24 25 25 24 24 25 25 26 26 26 26 26 26 27 27
33 33 32 31 30 29 28 27 27 26 26 26 25 25 24 24 24 24 24 25 25 25 25 25 25 25 25 25 25 25 25 25 26 26 27 26 26 27 27 27 28 28 28
34 34 33 32 31 30 29 28 28 28 27 26 26 26 25 26 26 26 26 26 26 26 26 26 25 25 25 26 26 26 26 27 27 28 27 28 28 28 28 28 28 28 29
34 34 34 34 33 32 31 30 29 29 29 28 27 26 27 27 27 28 27 26 26 26 26 26 26 26 26 26 27 27 27 28 28 29 29 29 29 29 30 30 30 30 30
33 33 33 34 34 33 32 32 29 29 29 29 28 27 28 28 29 28 28 27 27 27 27 27 28 28 27 28 28 28 28 29 30 30 30 30 30 30 30 31 31 31 31
33 33 33 34 34 33 32 32 31 30 30 30 29 29 29 29 30 29 29 29 29 28 28 29 29 29 29 29 29 29 30 30 30 30 30 31 31 31 31 32 32 32 33
33 32 32 33 33 33 33 32 31 31 31 31 30 30 30 30 30 30 30 30 30 30 30 30 30 30 30 31 31 31 31 31 31 32 32 33 33 33 33 33 34 35 35
33 33 32 31 32 32 33 33 32 31 31 31 31 32 32 31 31 30 31 31 31 32 32 32 32 32 32 32 32 32 32 33 33 34 34 35 35 35 35 35 35 35 36
32 32 31 31 31 33 34 34 33 33 32 32 32 33 33 32 32 32 32 32 33 33 33 33 33 34 33 32 33 33 34 35 35 36 36 37 37 37 37 38 37 37 38
29 30 30 31 31 32 33 34 34 35 35 34 34 34 34 34 34 33 34 34 34 34 34 34 35 34 35 34 35 36 36 36 37 37 38 38 38 39 39 40 39 39 39
27 29 30 31 31 31 32 33 33 34 36 37 37 36 35 35 36 36 35 35 34 34 35 35 36 36 37 37 37 37 38 38 38 39 39 40 40 40 41 42 41 40 40
27 28 29 31 32 31 30 32 33 34 35 36 37 37 37 36 36 36 35 35 36 36 37 37 37 38 39 39 39 40 40 40 40 40 41 41 41 41 42 42 42 42 42
26 27 29 31 32 33 33 33 34 34 35 35 36 36 36 36 36 36 37 37 37 38 38 39 39 40 40 41 41 41 42 42 42 42 42 42 43 43 43 43 43 43 43
27 28 29 30 31 33 33 34 34 35 35 35 35 36 37 37 37 37 38 38 39 39 40 41 41 42 42 43 44 44 44 44 44 44 44 44 45 44 43 43 43 44 43

GEFSSE_500_meanwind_156.txt.gz
Wind_Speed
16 16 15 15 14 13 12 12 11 10 9 8 7 7 6 6 5 5 5 4 4 5 5 5 5 5 5 6 6 7 7 8 9 9 10 11 11 12 12 13 13 13 13
19 18 17 16 16 15 14 13 13 12 11 10 8 8 7 7 7 6 6 6 6 6 6 6 6 7 7 7 8 9 9 10 10 11 11 12 12 13 14 14 15 15 15
21 20 19 18 17 16 16 15 14 13 12 11 10 9 8 8 8 8 8 7 7 7 7 8 8 8 9 9 10 10 11 11 12 12 13 13 14 14 15 15 16 16 16
23 22 21 20 19 18 17 16 15 15 14 12 11 11 10 9 9 9 9 9 9 9 9 9 9 10 10 11 11 11 12 13 13 13 14 14 14 15 16 16 17 17 17
25 24 22 21 20 20 19 18 17 16 15 14 13 12 12 11 11 10 10 10 10 11 11 11 11 11 12 12 13 13 14 15 15 15 15 15 15 16 16 17 17 18 18
27 25 24 23 22 21 21 20 19 18 17 16 15 14 13 13 12 12 12 12 12 12 12 12 13 13 13 14 14 15 15 16 16 16 16 16 16 17 17 17 18 18 18
28 27 26 25 24 23 22 21 20 19 18 17 17 16 15 14 14 14 14 14 14 14 14 14 14 15 15 15 16 16 16 17 17 17 17 17 17 17 18 18 18 19 19
29 28 28 27 26 25 24 23 22 21 20 19 18 18 16 16 15 15 15 15 15 15 16 16 17 17 17 18 18 18 18 18 18 18 18 18 18 19 19 19 19 19 20
31 30 29 28 27 26 26 25 24 23 22 21 20 20 19 18 17 17 17 17 17 17 17 18 18 19 20 20 20 19 19 19 19 19 19 19 19 20 19 20 20 20 20
32 31 30 29 28 28 27 26 25 24 23 22 21 21 21 20 19 19 18 19 19 19 19 19 20 21 21 21 21 20 20 20 19 20 19 19 20 20 20 21 21 21 22
33 32 31 31 30 29 28 27 26 25 24 24 23 22 22 22 22 21 20 20 19 19 20 20 21 22 22 22 22 21 21 21 20 20 20 21 21 21 22 22 22 22 23
33 33 32 31 31 30 29 28 27 26 25 24 24 23 23 23 22 22 22 21 21 21 21 22 22 23 22 22 22 22 22 21 22 22 22 22 22 23 23 23 23 23 23
34 33 32 31 30 30 30 29 28 28 26 25 25 24 24 24 23 23 23 23 23 23 23 23 23 23 23 23 23 23 23 22 23 23 23 23 23 24 24 24 24 24 25
34 34 34 32 31 30 29 28 28 27 27 27 26 25 25 25 25 25 24 24 24 24 24 24 24 24 23 23 23 24 24 24 24 23 24 24 25 25 25 25 25 26 26
35 34 34 34 33 31 30 29 28 28 28 27 27 27 27 26 26 26 25 25 26 26 26 25 25 25 25 24 25 25 25 25 24 25 25 26 27 27 27 27 27 28 28
34 34 33 34 34 33 31 30 30 29 29 29 28 28 28 28 28 28 27 27 27 27 27 27 27 26 26 26 26 26 26 26 26 27 27 28 28 28 29 29 29 30 30
34 34 34 33 33 34 33 32 31 31 30 30 30 30 30 29 29 30 30 30 30 29 29 29 28 28 27 27 27 27 27 28 28 29 29 29 29 29 30 30 31 31 32
34 34 34 34 34 34 34 33 32 32 32 32 31 31 31 31 31 30 30 31 31 31 30 30 29 29 29 28 28 29 29 30 30 30 30 31 31 31 31 32 32 32 33
34 34 35 35 35 34 34 34 34 33 34 34 34 34 33 33 33 33 32 32 32 31 31 30 30 30 30 30 30 31 31 31 31 32 32 32 32 32 33 33 34 34 35
33 33 34 35 35 35 34 35 36 35 35 35 35 35 34 34 34 33 33 33 33 32 32 32 31 32 32 31 32 32 32 33 34 34 33 34 34 34 35 35 35 36 36
33 33 34 34 35 35 35 35 36 36 36 36 36 36 36 34 34 34 33 33 33 33 33 33 33 33 33 33 33 34 35 35 35 35 35 35 35 36 37 37 37 37 37
32 33 34 34 34 35 35 36 36 36 37 36 36 36 35 34 34 34 34 34 34 34 34 34 34 34 35 35 36 37 37 36 37 37 37 37 38 38 39 39 40 39 39
29 30 32 34 34 35 36 36 36 36 36 36 36 37 37 36 36 35 35 35 36 36 36 36 35 35 36 37 38 38 38 38 38 38 39 40 40 40 41 41 41 41 42
29 29 28 30 31 33 34 35 35 35 35 36 36 37 37 37 37 37 37 37 37 38 38 37 37 37 38 38 39 39 40 40 41 41 41 42 42 42 43 43 44 44 44
28 28 28 29 30 31 31 32 33 35 36 36 36 37 36 37 37 37 38 38 38 38 38 38 38 38 38 38 38 39 40 41 42 42 43 43 44 45 45 45 46 46 46
27 28 28 28 30 31 31 32 33 34 36 37 37 37 37 37 37 37 37 38 37 38 38 37 38 38 39 40 40 41 42 43 44 44 45 45 46 46 47 47 47 47 47

GEFSSE_500_meanwind_162.txt.gz
Wind_Speed
16 15 14 12 12 12 11 11 11 10 10 9 9 8 7 7 7 7 7 7 7 6 6 6 6 6 6 6 6 7 8 8 9 9 10 10 10 11 11 12 12 13 13
19 17 16 15 14 13 13 13 12 12 11 11 10 9 9 8 8 8 8 8 8 8 8 7 8 8 8 8 8 8 9 10 10 10 11 11 12 12 12 12 13 14 14
21 20 19 17 16 15 15 14 14 14 13 13 12 11 11 10 10 10 10 9 9 9 9 9 9 9 9 9 9 10 10 11 12 12 12 13 13 13 13 13 14 14 15
24 23 21 20 19 18 17 16 16 15 15 15 14 13 12 12 11 11 11 11 10 10 11 11 11 10 10 11 11 11 11 12 13 13 14 14 13 14 14 14 15 15 15
26 25 23 22 21 20 19 18 18 17 16 16 16 15 14 14 13 12 12 12 12 12 12 12 12 12 12 12 12 13 13 14 14 15 15 15 15 15 15 15 16 16 16
28 26 25 24 23 22 21 20 20 19 18 18 17 17 16 15 14 14 14 14 14 14 14 14 14 14 13 13 14 15 15 15 16 16 16 16 16 16 16 16 16 17 17
29 28 27 26 25 24 23 22 22 21 20 20 19 18 17 17 16 15 15 15 15 14 14 14 14 15 15 15 16 16 17 17 17 17 17 17 17 17 17 17 17 17 17
31 29 28 27 26 25 24 24 23 23 22 21 21 20 19 19 18 17 16 16 15 15 14 14 14 15 16 16 17 18 18 18 18 18 18 18 18 18 18 18 18 17 17
32 31 30 29 28 27 26 25 25 24 24 23 22 21 21 20 19 19 18 17 17 16 15 15 15 16 16 17 18 18 19 19 19 19 19 19 18 18 18 18 18 18 18
34 32 31 31 30 29 27 27 26 26 25 25 24 23 22 22 21 20 19 19 18 18 17 17 17 17 18 18 19 19 19 19 19 19 19 19 20 19 19 19 20 20 20
35 33 31 30 31 31 29 28 28 27 27 26 25 25 23 23 23 22 21 20 19 19 19 19 19 19 19 19 20 20 20 20 20 20 20 20 20 20 20 21 21 21 21
36 35 33 31 32 32 30 29 29 29 28 27 26 26 25 25 24 23 23 22 22 21 21 21 21 21 21 21 21 21 21 21 20 20 21 21 21 21 21 21 22 22 22
37 36 34 33 33 33 32 30 30 30 29 28 28 27 26 26 26 25 25 24 24 23 23 23 23 23 23 22 22 22 22 22 22 22 22 22 22 22 22 23 23 23 24
38 38 36 33 33 33 32 31 30 31 30 30 29 28 27 27 27 27 26 25 25 24 23 23 24 24 24 24 24 23 23 23 23 23 23 23 23 23 23 23 24 24 24
39 39 37 35 34 34 33 32 30 30 31 30 29 29 29 29 28 28 27 27 26 26 26 25 25 25 25 25 25 24 24 24 24 24 24 24 24 24 25 25 25 25 25
38 39 37 36 35 34 34 33 31 31 31 30 30 29 29 29 29 28 28 27 27 27 28 28 27 26 26 26 26 26 26 25 25 25 25 25 25 25 26 26 27 27 27
37 38 38 35 35 34 34 33 31 31 31 30 29 30 30 30 30 30 29 29 29 29 28 28 29 29 28 27 27 27 27 27 27 27 27 27 27 27 28 28 29 29 29
37 37 38 36 35 34 34 34 33 31 31 31 30 30 31 30 31 31 32 31 31 30 30 30 30 31 30 30 29 28 28 29 29 29 29 29 29 30 30 31 31 31 31
37 36 37 36 36 34 34 34 34 34 32 31 31 31 31 32 32 32 33 33 33 32 32 33 32 32 32 32 32 31 30 30 30 31 32 32 32 32 32 33 33 33 33
35 35 35 36 34 33 33 34 35 35 35 33 32 31 31 33 33 33 34 34 34 34 34 34 33 33 34 33 33 33 32 31 32 32 33 33 33 34 34 34 34 35 35
34 35 34 34 33 32 32 34 35 35 36 35 34 34 33 33 33 34 35 35 36 36 35 35 35 35 35 35 34 34 34 33 34 34 34 34 35 35 36 36 37 37 37
33 33 33 32 32 32 32 33 34 35 36 35 35 34 35 35 35 35 36 36 37 37 36 36 36 36 36 36 35 35 36 36 36 36 36 36 37 37 38 38 38 39 39
31 32 33 32 32 32 33 33 33 34 36 35 35 35 36 36 36 36 37 38 38 38 37 37 37 36 36 37 37 37 38 37 38 37 38 39 39 40 40 41 41 41 41
30 30 32 32 32 32 32 32 33 34 35 35 35 36 37 37 37 37 38 38 38 38 38 38 38 38 38 38 38 39 39 40 40 40 40 40 40 41 41 42 43 43 43
29 29 30 30 30 30 31 31 32 33 34 34 35 36 37 37 37 37 37 38 39 38 39 39 39 39 40 40 40 41 41 42 42 42 41 41 41 42 43 44 44 45 45
29 29 29 28 28 29 30 30 31 32 33 34 35 36 37 38 38 38 38 39 39 39 39 40 40 41 41 41 42 42 43 43 43 43 43 43 43 44 45 46 46 46 46

GEFSSE_500_meanwind_168.txt.gz
Wind_Speed
19 18 16 15 14 12 12 11 10 9 8 7 7 6 6 5 5 5 5 5 5 5 5 5 6 6 6 7 7 7 7 8 8 9 9 10 10 10 10 10 11 11 11
22 20 19 17 16 15 13 12 11 10 10 9 8 8 7 7 7 6 6 6 6 6 7 7 7 8 8 8 8 9 9 9 9 10 10 11 11 11 11 11 12 12 12
24 23 21 20 18 17 15 14 13 12 12 11 10 9 9 8 8 8 8 7 7 7 7 8 8 8 9 9 10 10 10 10 11 11 12 12 12 12 12 13 13 13 13
26 25 24 22 21 19 17 16 15 14 13 13 12 11 11 10 10 9 9 9 8 8 8 9 9 9 10 10 11 11 11 12 12 13 13 14 14 14 14 14 14 14 14
28 27 26 24 23 21 20 18 17 16 15 14 14 13 13 12 11 11 10 10 10 10 9 9 10 10 11 11 12 12 12 13 13 14 14 15 15 15 15 15 15 15 15
30 29 28 27 25 24 22 21 19 18 17 16 15 15 14 14 13 12 12 12 11 11 11 11 11 11 11 12 12 13 13 14 15 15 15 15 15 15 15 15 16 16 16
32 31 30 29 27 26 24 23 21 20 19 18 17 16 16 15 15 14 14 13 13 12 12 12 12 12 13 13 13 14 14 15 15 16 16 16 16 15 15 16 16 16 16
34 33 32 31 29 28 26 25 23 22 21 20 19 18 17 17 16 16 16 15 15 14 13 13 13 13 14 14 14 15 15 16 16 16 16 16 16 16 16 16 16 17 17
35 34 34 33 31 30 28 27 25 24 23 22 21 20 19 18 18 18 17 17 16 16 15 15 15 15 15 15 16 16 16 17 17 16 17 17 17 17 17 17 18 18 18
36 36 35 34 33 32 30 28 27 26 25 24 23 22 21 20 19 19 19 19 18 18 18 17 16 16 16 17 17 17 18 18 18 17 18 18 18 18 18 18 19 19 20
37 36 36 35 35 34 33 30 29 28 27 26 25 24 23 22 22 21 21 20 20 20 20 19 19 18 18 18 19 19 19 19 19 19 19 19 19 18 19 19 19 20 21
38 37 36 35 35 35 33 32 30 30 29 28 27 26 25 24 23 23 22 22 22 22 22 21 21 20 19 20 20 20 20 20 20 20 20 20 19 19 20 20 20 21 22
39 39 37 35 34 34 34 33 32 30 29 29 29 28 27 26 25 24 24 24 24 23 23 23 22 22 21 21 21 21 21 21 21 21 21 21 21 21 21 22 22 22 23
40 40 39 37 35 35 35 35 33 30 31 30 30 29 29 28 27 26 26 25 25 25 25 25 24 24 23 22 22 22 22 22 22 22 23 23 23 23 23 23 23 23 23
37 39 40 39 37 36 36 36 36 33 31 31 30 29 29 29 28 28 27 27 26 27 27 27 26 25 25 24 23 23 23 23 24 24 24 24 24 24 25 24 24 25 25
36 37 38 39 37 37 36 36 36 34 33 33 32 31 30 29 28 28 27 27 27 27 26 27 27 27 26 26 26 25 25 25 26 26 26 26 26 26 26 26 26 27 27
35 36 37 38 38 38 36 36 35 34 33 33 32 31 30 29 29 29 28 28 28 28 28 28 28 28 27 27 27 27 27 27 27 27 28 28 28 27 27 27 28 28 29
34 35 36 37 38 38 37 36 36 35 33 32 32 32 30 30 30 30 29 29 29 28 29 29 29 29 28 29 29 29 29 29 29 29 29 29 29 29 29 29 29 30 31
33 34 35 36 37 38 37 36 35 36 35 34 33 33 32 32 31 31 30 29 30 30 30 30 30 30 30 31 31 31 31 31 30 30 31 31 31 32 32 32 32 33 34
30 31 33 35 36 36 36 36 36 36 36 35 34 33 32 31 31 31 31 30 30 31 31 31 31 32 32 32 33 33 33 34 33 33 33 33 34 33 34 35 35 36 36
29 30 31 33 35 36 35 33 33 34 35 36 35 34 34 33 33 32 32 32 32 32 32 33 33 33 33 34 35 35 35 35 36 36 35 35 35 35 36 36 37 37 38
27 28 29 30 33 35 36 34 34 34 34 36 36 35 35 35 34 35 34 33 33 33 34 34 34 34 35 35 35 36 36 37 37 38 37 37 37 37 38 38 38 39 40
26 27 27 29 31 34 35 35 36 34 34 35 37 36 35 35 35 35 34 34 35 35 35 35 36 36 37 37 37 37 37 37 37 38 39 39 38 39 40 40 41 41 42
25 26 27 28 29 32 32 33 33 33 33 33 35 37 37 36 36 36 35 35 35 36 36 36 37 37 38 38 39 39 38 38 39 39 40 41 40 41 41 41 42 43 43
24 26 27 28 29 30 30 30 31 32 33 34 35 36 36 36 36 37 36 36 37 38 38 38 38 39 39 40 40 39 40 40 41 41 41 42 42 42 42 42 42 44 45
23 25 26 26 27 28 29 30 31 32 32 33 34 36 37 38 38 38 38 37 38 39 39 39 39 39 40 40 41 41 41 41 41 42 43 43 43 43 43 44 44 45 46

GEFSSE_500_meanwind_174.txt.gz
Wind_Speed
21 19 18 16 15 14 13 12 11 10 10 9 9 9 8 8 7 7 6 6 5 4 4 3 3 3 2 3 3 4 5 6 6 6 6 7 7 7 7 8 8 8 9
24 22 21 19 18 16 15 15 14 12 11 11 10 10 9 9 8 8 7 7 6 5 5 4 4 4 3 3 4 5 6 6 7 7 7 8 8 9 9 9 9 9 9
26 25 23 22 21 19 18 17 16 14 13 12 12 11 11 10 10 9 8 8 7 6 6 5 5 5 4 4 5 5 6 7 8 8 8 9 9 9 9 10 10 10 10
29 28 26 25 23 22 21 19 18 16 15 15 14 13 13 12 11 10 9 9 8 7 7 6 6 6 6 6 6 6 7 8 9 9 9 9 9 9 10 10 10 10 11
31 30 29 27 26 24 23 22 21 19 17 17 16 15 15 14 13 12 11 10 10 9 8 8 8 8 8 8 8 8 8 9 10 10 10 10 10 10 10 11 11 11 11
32 31 31 30 28 27 25 24 23 22 20 19 18 18 17 16 15 14 12 11 11 10 10 10 10 10 9 9 9 9 9 10 10 10 10 10 10 10 10 11 11 11 12
34 33 32 32 31 29 28 26 25 24 23 21 20 20 19 18 17 16 15 13 13 12 12 11 11 11 11 10 10 10 10 10 10 11 11 11 11 11 11 11 12 12 12
36 35 34 33 32 31 30 29 27 26 25 23 22 22 21 20 19 18 17 16 15 14 13 13 13 13 13 12 12 12 12 12 11 11 11 11 12 12 12 12 13 13 13
37 37 36 35 34 33 31 30 29 28 27 25 24 23 23 22 21 20 19 18 17 16 15 14 14 14 14 14 14 13 13 13 13 12 12 12 12 13 13 14 14 14 15
39 38 38 37 36 34 33 32 31 30 29 28 27 25 25 24 23 22 21 20 19 18 17 16 16 16 16 15 15 15 14 15 15 14 14 14 14 14 14 14 15 15 16
37 38 39 38 37 36 35 34 33 32 30 29 28 27 27 26 25 25 23 22 21 20 19 18 17 17 17 17 17 16 16 16 16 16 16 16 16 16 16 16 16 17 17
36 37 39 39 38 37 36 35 35 33 32 31 30 28 28 28 27 26 25 24 23 22 21 20 19 18 18 18 18 18 18 17 17 17 17 17 17 18 18 18 18 19 19
36 37 38 39 39 37 36 37 36 36 34 33 31 30 30 29 29 28 27 26 25 24 23 22 21 21 20 20 20 20 20 19 19 19 19 19 19 20 20 20 20 20 20
37 38 39 39 39 37 36 37 36 36 36 35 33 32 31 30 30 29 28 27 26 25 24 24 23 23 22 22 22 22 22 21 21 21 21 21 21 21 21 22 22 22 22
38 39 40 40 39 38 37 36 36 35 35 34 32 33 31 30 30 30 29 28 27 26 25 25 24 24 24 23 23 23 23 23 23 22 22 23 23 23 23 23 23 24 24
36 38 39 39 39 38 37 36 36 36 35 34 34 33 32 31 31 30 30 30 29 28 27 27 26 25 25 25 25 25 25 25 25 24 24 24 24 24 24 25 25 25 26
35 37 38 38 38 38 38 38 38 37 36 36 34 33 33 32 32 32 31 30 29 29 29 29 28 27 27 26 27 27 27 26 27 27 26 26 26 27 27 27 27 27 28
34 36 37 37 37 38 38 38 38 38 38 37 36 34 33 33 33 33 32 31 30 30 30 30 30 29 28 28 28 28 28 28 28 28 28 28 28 29 29 29 30 30 30
33 35 35 35 35 36 37 37 38 38 37 36 36 35 33 32 32 33 33 31 31 31 31 31 31 30 30 29 29 29 30 30 30 30 30 30 30 31 31 31 32 32 32
30 32 32 33 34 34 34 35 36 36 36 35 36 36 35 34 33 33 33 32 32 32 32 32 32 31 30 30 31 31 31 32 32 32 32 33 33 32 32 33 34 34 34
28 29 29 31 32 32 32 32 33 35 36 36 36 36 36 36 35 35 35 34 33 32 32 33 33 32 32 31 32 32 33 34 34 34 35 35 34 34 34 35 36 36 37
25 26 26 27 29 30 31 31 32 33 35 36 36 37 37 36 35 35 35 34 34 34 34 34 34 33 34 34 34 34 34 35 36 36 37 37 37 37 37 38 38 39 39
25 24 24 25 27 29 30 30 30 32 33 34 35 36 36 36 35 35 35 35 35 36 36 36 36 36 36 36 37 37 38 37 37 37 37 38 39 39 40 40 40 41 41
23 24 24 25 27 28 29 29 29 29 30 32 34 35 36 36 36 35 36 36 36 37 37 37 37 38 38 38 39 39 39 39 38 38 38 39 40 40 41 42 42 42 42
23 24 22 23 23 25 27 28 29 29 29 31 34 35 36 36 37 37 37 37 37 38 38 39 39 40 40 40 40 41 41 41 40 40 40 41 41 42 43 43 44 44 44
22 23 23 22 22 24 26 28 28 28 28 31 33 35 36 36 37 38 38 38 39 39 40 40 40 40 41 41 42 42 42 42 42 42 42 42 42 43 44 44 45 45 45